logo tempoitalia

Diretta Meteo Bari-Palese Macchie, Italiasabato 15 agosto ore 09:50

Mappa
Sereno 29 °C Sereno 24 Ore: T.min 22 T.max 35
Ponente Nord/NOvest Km/h 13 Punto di rugiada: 19 °C Umidità: 54% Visibilità: 10 Km
Il sole sorge alle: 06:01 Il sole tramonta alle: 19:53
15 Agosto 2020 09:50 tempo osservato: Sereno Sereno 29 54 1011 vento: Nord N/NO 13
15 Agosto 2020 09:20 tempo osservato: Sereno Sereno 28 61 1011 vento: Nord N/NO 11.1
15 Agosto 2020 08:50 tempo osservato: Sereno Sereno 27 65 1011 vento: Nord N/NO 13
15 Agosto 2020 08:20 tempo osservato: Sereno Sereno 27 69 1011 vento: Nord NO 13
15 Agosto 2020 07:50 tempo osservato: Sereno Sereno 27 65 1011 vento: Nord N/NO 11.1
15 Agosto 2020 07:20 tempo osservato: Sereno Sereno 25 61 1010 vento: Nord N 1.8
15 Agosto 2020 06:50 tempo osservato: Sereno Sereno 23 64 1010 vento: Nord N 1.8
15 Agosto 2020 06:20 tempo osservato: Sereno Sereno 23 64 1010 vento: Nord N 3.7
15 Agosto 2020 05:50 tempo osservato: Sereno Sereno 22 68 1010 vento: Nord O/SO 9.3
15 Agosto 2020 05:20 tempo osservato: Sereno Sereno 23 64 1010 vento: Nord S/SO 7.4
15 Agosto 2020 04:50 tempo osservato: Sereno Sereno 25 65 1010 vento: Nord N 3.7
15 Agosto 2020 04:20 tempo osservato: Sereno Sereno 26 61 1010 vento: Nord N 5.5
15 Agosto 2020 03:50 tempo osservato: Sereno Sereno 26 57 1009 vento: Nord NO 9.3
15 Agosto 2020 03:20 tempo osservato: Sereno Sereno 27 50 1009 vento: Nord O/NO 7.4
15 Agosto 2020 02:50 tempo osservato: Sereno Sereno 27 47 1009 vento: Nord O 11.1
15 Agosto 2020 02:20 tempo osservato: Sereno Sereno 27 44 1010 vento: Nord O 11.1
15 Agosto 2020 01:50 tempo osservato: Sereno Sereno 26 47 1010 vento: Nord SO 11.1
15 Agosto 2020 01:20 tempo osservato: Sereno Sereno 25 53 1010 vento: Nord S 7.4
15 Agosto 2020 00:50 tempo osservato: Sereno Sereno 26 50 1010 vento: Nord S/SO 7.4
15 Agosto 2020 00:20 tempo osservato: Sereno Sereno 26 50 1010 vento: Nord SO 9.3
14 Agosto 2020 23:50 tempo osservato: Sereno Sereno 27 50 1010 vento: Nord SO 11.1
14 Agosto 2020 23:20 tempo osservato: Sereno Sereno 28 48 1010 vento: Nord O 7.4
14 Agosto 2020 22:50 tempo osservato: Sereno Sereno 28 51 1010 vento: Nord O/SO 13
14 Agosto 2020 22:20 tempo osservato: Sereno Sereno 29 48 1010 vento: Nord O/SO 13
14 Agosto 2020 21:50 tempo osservato: Sereno Sereno 30 45 1010 vento: Nord S/SO 16.7
14 Agosto 2020 21:20 tempo osservato: Sereno Sereno 31 40 1010 vento: Nord S/SO 14.8
14 Agosto 2020 20:50 tempo osservato: Sereno Sereno 31 40 1009 vento: Nord S 13
14 Agosto 2020 20:20 tempo osservato: Sereno Sereno 32 38 1009 vento: Nord S/SO 14.8
14 Agosto 2020 19:50 tempo osservato: Sereno Sereno 33 36 1008 vento: Nord S/SO 20.3
14 Agosto 2020 18:50 tempo osservato: Sereno Sereno 35 30 1008 vento: Nord S 20.3
14 Agosto 2020 18:20 tempo osservato: Sereno Sereno 34 38 1008 vento: Nord E 7.4
14 Agosto 2020 17:50 tempo osservato: Sereno Sereno 32 43 1009 vento: Nord E 20.3
14 Agosto 2020 16:50 tempo osservato: Sereno Sereno 33 38 1009 vento: Nord E/NE 25.9
14 Agosto 2020 16:20 tempo osservato: Sereno Sereno 33 38 1010 vento: Nord E 25.9
14 Agosto 2020 15:50 tempo osservato: Sereno Sereno 34 36 1010 vento: Nord E 25.9
14 Agosto 2020 15:20 tempo osservato: Sereno Sereno 34 30 1010 vento: Nord E 25.9
14 Agosto 2020 14:50 tempo osservato: Sereno Sereno 34 30 1011 vento: Nord E 22.2
14 Agosto 2020 14:20 tempo osservato: Sereno Sereno 34 30 1011 vento: Nord E 22.2
14 Agosto 2020 13:50 tempo osservato: Sereno Sereno 34 28 1011 vento: Nord E 24
14 Agosto 2020 13:20 tempo osservato: Sereno Sereno 34 30 1012 vento: Nord E/NE 24
14 Agosto 2020 12:20 tempo osservato: Sereno Sereno 33 33 1012 vento: Nord E/NE 20.3
14 Agosto 2020 11:50 tempo osservato: Sereno Sereno 33 38 1012 vento: Nord E/NE 18.5
14 Agosto 2020 11:20 tempo osservato: Sereno Sereno 33 33 1013 vento: Nord E 18.5
14 Agosto 2020 10:50 tempo osservato: Sereno Sereno 32 38 1013 vento: Nord E/NE 13